Flag for Uruguay Weather past 2 weeks in Florida, Uruguay

Now
55 °F

Thundershowers. Passing clouds.


Feels Like: 55 °F
Forecast: 53 / 58 °F
Wind: 5 mph from Southeast

Location: Carrasco

Current Time: Jul 22, 2014 at 5:28:03 AM

Latest Report: Jul 22, 2014 at 5:00 AM


Visibility: N/A

Pressure: 29.86 "Hg

Humidity: 88%

Dew point: 52 °F

Location of FloridaLocation

Historic Weather in Florida — Graph

°F

Florida temperature yesterday

Maximum temperature yesterday: 70 °F (at 2:00 PM)
Minimum temperature yesterday: 46 °F (at 6:00 AM)
Average temperature yesterday: 58 °F

Past Weeks' High & Low Weather Summary

 TemperatureHumidityPressure
High70 °F (Jul 14, 2:00 PM)100% (Jul 9, 4:00 AM)30.45 "Hg (Jul 9, 4:00 AM)
Low41 °F (Jul 9, 4:00 AM)43% (Jul 20, 2:00 PM)29.89 "Hg (Jul 15, 3:00 AM)
Average55 °F83%30.15 "Hg
* Reported Jul 7 4:00 AM — Jul 22 4:00 AM, Florida, Weather by CustomWeather, © 2014

Note: Actual official high and low records may vary slightly from our data, if they occured in-between our weather recording intervals... More about our weather records

Advertising

Florida weather history for previous 24 hours

 ConditionsComfort  
Time TempWeatherWind HumidityBarometerVisibility
4:00 AM
Jul 22
57 °FThundershowers. Passing clouds.2 mph82%29.89 "HgN/A
3:00 AM57 °FThundershowers. Passing clouds.No wind82%29.89 "HgN/A
2:00 AM55 °FThunderstorms. Passing clouds.2 mph88%29.89 "HgN/A
1:00 AM55 °FThunderstorms. Passing clouds.3 mph88%29.89 "HgN/A
12:00 AM57 °FThunderstorms. Passing clouds.7 mph82%29.89 "HgN/A
11:00 PM
Jul 21
59 °FThundershowers. Passing clouds.6 mph77%29.89 "HgN/A
10:00 PM59 °FThundershowers. Passing clouds.7 mph82%29.89 "HgN/A
9:00 PM63 °FThundershowers. Passing clouds.6 mph73%29.89 "HgN/A
8:00 PM64 °FClear.7 mph68%29.89 "Hg10 mi
7:00 PM63 °FClear.7 mph83%29.92 "Hg10 mi
6:00 PM66 °FClear.6 mph64%29.92 "Hg10 mi
5:00 PM70 °FClear.10 mph53%29.89 "Hg10 mi
4:00 PM70 °FSunny.8 mph50%29.92 "Hg10 mi
3:00 PM70 °FSunny.10 mph50%29.92 "Hg10 mi
2:00 PM70 °FSunny.10 mph73%29.95 "Hg10 mi
1:00 PM68 °FSunny.12 mph73%29.98 "Hg10 mi
12:00 PM66 °FSunny.7 mph56%30.04 "Hg10 mi
11:00 AM61 °FSunny.7 mph63%30.04 "Hg10 mi
10:00 AM55 °FSunny.7 mph77%30.04 "Hg10 mi
9:00 AM50 °FSunny.9 mph88%30.04 "Hg10 mi
8:00 AM48 °FSunny.6 mph82%30.04 "Hg10 mi
7:00 AM48 °FSunny.10 mph87%30.01 "Hg10 mi
6:00 AM46 °FClear.8 mph93%30.01 "Hg10 mi
5:00 AM50 °FClear.9 mph76%30.01 "Hg10 mi
Weather by CustomWeather, © 2014

See weather overviewHow to use our weather pages